This demonstration page uses our WeatherBlox Daily Observations layout. Learn more.

Left ArrowRight Arrow

Hourly Observations for September 22, 2021

Temp ( °F °C ) Dew Point ( °F °C ) Humidity (%) Winds ( mph kmh ) Pressure ( in mb ) Visibility ( mi km ) Precip ( " mm )
12:15 am 00:15 Clear 47 8.5 44 6.7 89 89 N N/A 30.44 1031 10 16 N/A
12:35 am 00:35 Clear 46 7.9 44 6.4 90 90 N N/A 30.44 1031 10 16 N/A
12:55 am 00:55 Clear 47 8.4 44 6.4 87 87 N N/A 30.43 1030 10 16 N/A
1:15 am 01:15 Clear 47 8.1 44 6.5 90 90 N N/A 30.43 1030 10 16 N/A
1:35 am 01:35 Clear 46 7.7 43 6.1 90 90 N N/A 30.42 1030 10 16 N/A
1:55 am 01:55 Clear 44 6.9 41 5.2 89 89 N N/A 30.43 1031 7 11 N/A
2:15 am 02:15 Clear 45 7.4 43 6 91 91 N N/A 30.43 1030 10 16 N/A
2:35 am 02:35 Clear 45 7.1 42 5.6 90 90 N N/A 30.43 1030 10 16 N/A
2:55 am 02:55 Clear 44 6.6 42 5.3 92 92 N N/A 30.43 1031 10 16 N/A
3:15 am 03:15 Clear 44 6.5 41 5.2 92 92 N N/A 30.43 1031 10 16 N/A
3:35 am 03:35 Clear 43 6.2 41 5 92 92 N N/A 30.44 1031 10 16 N/A
3:55 am 03:55 Clear 43 6 41 5 93 93 N N/A 30.44 1031 10 16 N/A
4:15 am 04:15 Clear 43 6 41 4.9 93 93 N N/A 30.44 1031 10 16 N/A
4:35 am 04:35 Clear 43 6.1 41 5 93 93 N N/A 30.43 1030 10 16 N/A
4:55 am 04:55 Clear 42 5.4 40 4.3 93 93 N N/A 30.43 1031 10 16 N/A
5:15 am 05:15 Clear 42 5.6 40 4.5 93 93 N N/A 30.43 1031 10 16 N/A
5:35 am 05:35 Clear 42 5.3 38 3.6 89 89 N N/A 30.43 1030 10 16 N/A
5:55 am 05:55 Clear 42 5.5 40 4.2 91 91 N N/A 30.42 1030 10 16 N/A
6:15 am 06:15 Clear 42 5.5 40 4.3 92 92 N N/A 30.42 1030 10 16 N/A
6:35 am 06:35 Clear 42 5.5 40 4.5 93 93 N N/A 30.42 1030 10 16 N/A
6:55 am 06:55 Clear 40 4.3 38 3.1 92 92 N N/A 30.44 1031 10 16 N/A
7:15 am 07:15 Clear 41 4.8 39 4 95 95 N N/A 30.43 1030 7 11 N/A
7:35 am 07:35 Sunny 41 4.8 39 4 95 95 N N/A 30.43 1030 7 11 N/A
7:55 am 07:55 Sunny 41 5.2 39 4.1 93 93 N N/A 30.43 1030 10 16 N/A
8:15 am 08:15 Sunny 43 6.2 41 5.1 93 93 N N/A 30.42 1030 10 16 N/A
8:35 am 08:35 Sunny 47 8.6 44 6.6 87 87 N N/A 30.41 1030 10 16 N/A
8:55 am 08:55 Sunny 51 10.7 45 7.3 80 80 N N/A 30.38 1029 10 16 N/A
9:15 am 09:15 Sunny 54 12.4 47 8.5 77 77 N N/A 30.36 1028 10 16 N/A
9:35 am 09:35 Sunny 56 13.6 48 8.9 73 73 N N/A 30.35 1028 10 16 N/A
9:55 am 09:55 Sunny 58 14.7 49 9.5 71 71 SSW 5 7 30.34 1027 10 16 N/A
10:15 am 10:15 Sunny 61 16.2 47 8.3 60 60 S 8 13 30.32 1027 10 16 N/A
10:35 am 10:35 Sunny 63 17 46 7.5 54 54 S 6 9 30.31 1026 10 16 N/A
10:55 am 10:55 Sunny 64 18 44 6.8 48 48 SSW 8 13 30.29 1026 10 16 N/A
11:15 am 11:15 Sunny 66 19 44 6.4 44 44 SW 5 7 30.28 1026 10 16 N/A
11:35 am 11:35 Sunny 68 20.1 43 5.9 40 40 SW 7 11 30.27 1025 10 16 N/A
11:55 am 11:55 Sunny 69 20.5 41 4.9 36 36 SW 6 9 30.25 1024 10 16 N/A
12:15 pm 12:15 Sunny 71 21.4 40 4.3 33 33 SW 8 13 30.24 1024 10 16 N/A
12:35 pm 12:35 Sunny 72 22.3 39 4 30 30 SW 7 11 30.22 1023 10 16 N/A
12:55 pm 12:55 Sunny 72 22.2 37 2.8 28 28 SSW 9 15 30.21 1023 10 16 N/A
1:15 pm 13:15 Sunny 73 22.7 37 2.7 27 27 SW 7 11 30.19 1022 10 16 N/A
1:35 pm 13:35 Sunny 73 22.6 37 2.6 27 27 SSW 12 19 30.18 1022 10 16 N/A
1:55 pm 13:55 Sunny 73 22.8 37 2.7 27 27 SW 7 11 30.16 1021 10 16 N/A
2:15 pm 14:15 Sunny 74 23.1 38 3.4 28 28 S 8 13 30.15 1021 10 16 N/A
2:35 pm 14:35 Sunny 74 23.6 38 3.5 27 27 S 13 20 30.14 1021 10 16 N/A
2:55 pm 14:55 Sunny 75 24 37 3 25 25 SW 8 13 30.11 1020 10 16 N/A
3:15 pm 15:15 Sunny 76 24.3 36 2.3 24 24 SSW 8 13 30.10 1019 10 16 N/A
3:35 pm 15:35 Sunny 76 24.6 36 2.3 23 23 S 9 15 30.09 1019 10 16 N/A
3:55 pm 15:55 Sunny 76 24.5 37 2.5 24 24 S 7 11 30.08 1019 10 16 N/A
4:15 pm 16:15 Sunny 77 25 37 2.7 23 23 SSE 10 17 30.07 1018 10 16 N/A
4:35 pm 16:35 Sunny 77 24.9 36 2.1 23 23 S 12 19 30.06 1018 10 16 N/A
4:55 pm 16:55 Sunny 77 25 37 2.6 23 23 SSE 10 17 30.05 1017 10 16 N/A
5:15 pm 17:15 Sunny 76 24.7 37 2.7 24 24 SSE 10 17 30.04 1017 10 16 N/A
5:35 pm 17:35 Sunny 76 24.6 36 2.4 24 24 SSE 13 20 30.03 1017 10 16 N/A
5:55 pm 17:55 Sunny 76 24.3 37 2.8 25 25 SSE 10 17 30.03 1017 10 16 N/A
6:15 pm 18:15 Sunny 75 24 37 3 25 25 SSE 9 15 30.02 1017 10 16 N/A
6:35 pm 18:35 Sunny 74 23.2 38 3.5 28 28 SSE 9 15 30.03 1017 10 16 N/A
6:55 pm 18:55 Sunny 72 22.1 39 3.9 30 30 SSE 8 13 30.03 1017 7 11 N/A
7:15 pm 19:15 Sunny 69 20.5 40 4.3 35 35 SE 9 15 30.04 1017 10 16 N/A
7:35 pm 19:35 Clear 65 18.6 40 4.5 40 40 SE 8 13 30.05 1018 10 16 N/A
7:55 pm 19:55 Clear 61 16.3 42 5.6 49 49 SE 8 13 30.07 1018 10 16 N/A
8:15 pm 20:15 Clear 61 16.1 42 5.5 50 50 SE 9 15 30.06 1018 10 16 N/A
8:35 pm 20:35 Clear 60 15.6 42 5.5 51 51 SSE 8 13 30.07 1018 10 16 N/A
8:55 pm 20:55 Clear 59 15 42 5.5 53 53 SSE 7 11 30.08 1019 10 16 N/A
9:15 pm 21:15 Clear 58 14.5 42 5.6 55 55 SSE 6 9 30.08 1019 10 16 N/A
9:35 pm 21:35 Clear 57 14 42 5.8 58 58 SE 8 13 30.10 1019 10 16 N/A
9:55 pm 21:55 Clear 55 12.9 43 6 63 63 SE 7 11 30.10 1019 10 16 N/A
10:15 pm 22:15 Clear 55 12.7 43 6 64 64 SSE 6 9 30.10 1019 10 16 N/A
10:35 pm 22:35 Clear 55 13 43 5.9 62 62 SSE 6 9 30.10 1019 10 16 N/A
10:55 pm 22:55 Clear 55 12.7 42 5.8 63 63 SSE 6 9 30.10 1019 10 16 N/A
11:15 pm 23:15 Clear 55 12.7 42 5.7 63 63 SSE 6 9 30.10 1019 10 16 N/A
11:35 pm 23:35 Clear 55 12.9 42 5.3 60 60 SSE 6 9 30.09 1019 10 16 N/A
11:55 pm 23:55 Clear 57 13.7 41 5 56 56 SSE 9 15 30.08 1019 10 16 N/A

Powered by AerisWeather